NOAA 16 DEB, 41283

Orbit data source: Space-Track

NOAA 16 DEB, 41283 is space debris in SSO originally from a launch on Thu, 21 Sep 2000 UTC launched from the Air Force Western Test Range (AFWTR). Debris objects in space refer to the collection of defunct objects orbiting the Earth. Examples of debris include non-operational satellites, rocket bodies, and fragments generated from explosions, collisions, or faulty payload assembly.

Loading next visibility...
Identifier
41283, 2000-055GK
Orbit
SSO
Country
Flag of USUS
Related business
Manufacturer
Unknown
Mission
Spacecraft
Bus & Motor
Unknown
Mass
Unknown
Launch date (UTC)
2000-09-21 (25 years ago)
Launch vehicle
Unknown
Launch site
Air Force Western Test Range (AFWTR)
Object type
Payload
Rocket body
Debris
Shape & HBR
Unknown
Radar Cross Section
Small (<0.1 m²)

Expand to show TLE details & history
Last TLE update: 2 days ago

TLE from 2 days ago
0 NOAA 16 DEB
1 41283U 00055GK  25258.67738144  .00002236  00000-0  13225-2 0  9998
2 41283  98.8196 238.0193 0063741  52.4869 308.2071 14.07712549497991
Epoch: 2025-09-15T16:15Z
TLE epoch observation values (Epoch: 2025-09-15T16:15:25.756Z)
Latitude
-0.00001°
Longitude
-0.71662°
Altitude
841.717 km
Speed
7.446 km/s
True Right ascension
15h 52m 04s
True Declination
0° 00' 00"
Sunlit
Object was in daylight at epoch
Visualization orbit readout
Latitude
Unknown
Longitude
Unknown
Altitude
Unknown
Speed
Unknown
Apparent Right ascension
Unknown
Apparent Declination
Unknown
Sunlit
N/A
Visualization observer readout
Local Sidereal Time
01:50:17
Azimuth
Unknown
Elevation
Unknown
Doppler factor
Unknown
Orbital elements
Apogee altitude
910.555 km
Perigee altitude
818.225 km
Semi-major axis
7,242.527 km
Eccentricity
0.00637
Inclination
98.8196°
RAAN
238.0193°
Arg. of periapsis
52.4869°
True anomaly
307.63032°
Mean anomaly
308.2071°
Eccentric anomaly
307.91899°
Mean motion
3.52134 °/min
Orbital period
102.23 mins
BSTAR
0.0013225
Loading maneuver chart data...
Computing Atmospheric mass density...
Loading historical data...
Loading historical data...
Loading historical data...
Loading historical data...
Loading historical data...
Loading historical data...
Loading historical data...

Documentation

Showing up to 5 results
|